• In Romania
  • List of Countries
  • For 7 days
  • Water Temperature
  • Satellite Maps
  • Weather Map
  • Weather Widgets
  • user-avatar
    Login

    Hourly Weather Darwin

    Today, 19 September, Tuesday

    Time Temperature Precipitation Wind Pressure Humidity
    00:00 +27°C° 0 mm 1 mps 760 mmHg 78%
    01:00 +27°C° 0 mm 1 mps 760 mmHg 78%
    02:00 +26°C° 0 mm 1 mps 760 mmHg 79%
    03:00 +26°C° 0 mm 1 mps 760 mmHg 84%
    04:00 +26°C° 0 mm 1 mps 760 mmHg 85%
    05:00 +24°C° 0 mm 0 mps 760 mmHg 86%
    06:00 +23°C° 0 mm 0 mps 760 mmHg 88%
    07:00 +26°C° 0 mm 0 mps 760 mmHg 74%
    08:00 +29°C° 0 mm 0 mps 760 mmHg 60%
    09:00 +34°C° 0 mm 1 mps 761 mmHg 46%
    10:00 +36°C° 0 mm 2 mps 760 mmHg 38%
    11:00 +38°C° 0 mm 2 mps 760 mmHg 30%
    12:00 +40°C° 0 mm 3 mps 759 mmHg 23%
    13:00 +40°C° 0 mm 3 mps 758 mmHg 22%
    14:00 +40°C° 0 mm 3 mps 758 mmHg 22%
    15:00 +39°C° 0 mm 3 mps 757 mmHg 26%
    16:00 +37°C° 0 mm 3 mps 757 mmHg 32%
    17:00 +36°C° 0 mm 3 mps 757 mmHg 37%
    18:00 +34°C° 0 mm 3 mps 758 mmHg 43%
    19:00 +33°C° 0 mm 3 mps 758 mmHg 51%
    20:00 +30°C° 0 mm 2 mps 758 mmHg 59%
    21:00 +29°C° 0 mm 2 mps 759 mmHg 68%
    22:00 +29°C° 0 mm 1 mps 759 mmHg 69%
    23:00 +28°C° 0 mm 1 mps 759 mmHg 71%

    Tomorrow, 20 September, Wednesday

    Time Temperature Precipitation Wind Pressure Humidity
    00:00 +26°C° 0 mm 0 mps 759 mmHg 73%
    01:00 +26°C° 0 mm 0 mps 759 mmHg 74%
    02:00 +28°C° 0 mm 1 mps 759 mmHg 74%
    03:00 +27°C° 0 mm 1 mps 759 mmHg 75%
    04:00 +27°C° 0 mm 1 mps 759 mmHg 76%
    05:00 +27°C° 0 mm 1 mps 759 mmHg 78%
    06:00 +27°C° 0 mm 1 mps 759 mmHg 79%
    07:00 +29°C° 0 mm 1 mps 759 mmHg 68%
    08:00 +31°C° 0 mm 2 mps 760 mmHg 57%
    09:00 +34°C° 0 mm 2 mps 760 mmHg 47%
    10:00 +36°C° 0 mm 3 mps 759 mmHg 38%
    11:00 +38°C° 0 mm 3 mps 759 mmHg 29%
    12:00 +40°C° 0 mm 3 mps 758 mmHg 20%
    13:00 +40°C° 0 mm 3 mps 757 mmHg 21%
    14:00 +42°C° 0 mm 4 mps 757 mmHg 21%
    15:00 +42°C° 0 mm 4 mps 756 mmHg 22%
    16:00 +40°C° 0 mm 4 mps 756 mmHg 31%
    17:00 +36°C° 0 mm 4 mps 756 mmHg 41%
    18:00 +34°C° 0 mm 4 mps 756 mmHg 51%
    19:00 +33°C° 0 mm 3 mps 757 mmHg 56%
    20:00 +31°C° 0 mm 2 mps 757 mmHg 62%
    21:00 +30°C° 0 mm 1 mps 758 mmHg 68%
    22:00 +29°C° 0.1 mm 1 mps 758 mmHg 68%
    23:00 +29°C° 0.1 mm 1 mps 758 mmHg 69%

    Day after tomorrow, 21 September, Thursday

    Time Temperature Precipitation Wind Pressure Humidity
    00:00 +29°C° 0.1 mm 1 mps 758 mmHg 70%
    01:00 +29°C° 0.1 mm 1 mps 758 mmHg 71%
    02:00 +28°C° 0.1 mm 1 mps 758 mmHg 72%
    03:00 +28°C° 0.1 mm 1 mps 758 mmHg 73%
    04:00 +28°C° 0 mm 1 mps 758 mmHg 74%
    05:00 +28°C° 0 mm 1 mps 758 mmHg 76%
    06:00 +27°C° 0 mm 1 mps 758 mmHg 78%
    07:00 +29°C° 0 mm 1 mps 759 mmHg 67%
    08:00 +32°C° 0 mm 2 mps 759 mmHg 56%
    09:00 +35°C° 0 mm 3 mps 759 mmHg 45%
    10:00 +37°C° 0 mm 3 mps 759 mmHg 38%
    11:00 +38°C° 0 mm 4 mps 758 mmHg 31%
    12:00 +41°C° 0 mm 4 mps 758 mmHg 23%
    13:00 +41°C° 0 mm 5 mps 757 mmHg 24%
    14:00 +42°C° 0 mm 5 mps 756 mmHg 24%
    15:00 +42°C° 0 mm 5 mps 755 mmHg 25%
    16:00 +40°C° 0 mm 5 mps 755 mmHg 32%
    17:00 +37°C° 0 mm 4 mps 755 mmHg 39%
    18:00 +35°C° 0 mm 4 mps 756 mmHg 46%
    19:00 +34°C° 0 mm 4 mps 756 mmHg 52%
    20:00 +33°C° 0 mm 3 mps 757 mmHg 58%
    21:00 +31°C° 0 mm 3 mps 758 mmHg 65%
    22:00 +30°C° 0.5 mm 3 mps 758 mmHg 68%
    23:00 +30°C° 0.5 mm 2 mps 758 mmHg 71%

    22 September, Friday

    Time Temperature Precipitation Wind Pressure Humidity
    00:00 +29°C° 0.5 mm 2 mps 759 mmHg 73%
    01:00 +29°C° 0.4 mm 2 mps 758 mmHg 74%
    02:00 +29°C° 0.4 mm 1 mps 758 mmHg 75%
    03:00 +29°C° 0.4 mm 1 mps 758 mmHg 76%
    04:00 +29°C° 0 mm 1 mps 758 mmHg 76%
    05:00 +29°C° 0 mm 1 mps 758 mmHg 76%
    06:00 +29°C° 0 mm 1 mps 759 mmHg 76%
    07:00 +30°C° 0 mm 1 mps 759 mmHg 69%
    08:00 +31°C° 0 mm 2 mps 759 mmHg 61%
    09:00 +34°C° 0 mm 2 mps 760 mmHg 54%
    10:00 +36°C° 0 mm 2 mps 759 mmHg 44%
    11:00 +38°C° 0 mm 3 mps 759 mmHg 35%
    12:00 +41°C° 0 mm 4 mps 758 mmHg 25%
    13:00 +41°C° 0 mm 4 mps 757 mmHg 25%
    14:00 +41°C° 0 mm 4 mps 757 mmHg 25%
    15:00 +41°C° 0 mm 5 mps 756 mmHg 25%
    16:00 +38°C° 0 mm 4 mps 756 mmHg 33%
    17:00 +36°C° 0 mm 4 mps 756 mmHg 42%
    18:00 +34°C° 0 mm 4 mps 756 mmHg 50%
    19:00 +34°C° 0 mm 4 mps 757 mmHg 55%
    20:00 +33°C° 0 mm 3 mps 758 mmHg 61%
    21:00 +31°C° 0 mm 3 mps 759 mmHg 66%
    22:00 +30°C° 0 mm 3 mps 759 mmHg 69%
    23:00 +30°C° 0 mm 2 mps 759 mmHg 72%

    23 September, Saturday

    Time Temperature Precipitation Wind Pressure Humidity
    00:00 +29°C° 0 mm 2 mps 759 mmHg 75%
    01:00 +29°C° 0.4 mm 2 mps 759 mmHg 77%
    02:00 +29°C° 0.4 mm 2 mps 759 mmHg 78%
    03:00 +28°C° 0.4 mm 1 mps 758 mmHg 80%
    04:00 +28°C° 0 mm 1 mps 758 mmHg 80%
    05:00 +28°C° 0 mm 1 mps 759 mmHg 81%
    06:00 +28°C° 0 mm 1 mps 759 mmHg 81%
    07:00 +30°C° 0 mm 1 mps 759 mmHg 71%
    08:00 +32°C° 0 mm 1 mps 760 mmHg 61%
    09:00 +35°C° 0 mm 1 mps 760 mmHg 51%
    10:00 +37°C° 0 mm 2 mps 759 mmHg 45%
    11:00 +39°C° 0 mm 2 mps 759 mmHg 39%
    12:00 +40°C° 0 mm 3 mps 758 mmHg 34%
    13:00 +39°C° 0.1 mm 3 mps 758 mmHg 37%
    14:00 +38°C° 0.1 mm 4 mps 757 mmHg 39%
    15:00 +37°C° 0.1 mm 5 mps 756 mmHg 42%
    16:00 +36°C° 0 mm 4 mps 756 mmHg 46%
    17:00 +35°C° 0 mm 4 mps 757 mmHg 50%
    18:00 +34°C° 0 mm 3 mps 757 mmHg 54%
    19:00 +33°C° 0 mm 3 mps 757 mmHg 60%
    20:00 +31°C° 0 mm 3 mps 758 mmHg 66%
    21:00 +30°C° 0 mm 3 mps 758 mmHg 71%
    22:00 +30°C° 0 mm 3 mps 758 mmHg 74%
    23:00 +29°C° 0 mm 2 mps 758 mmHg 77%

    24 September, Sunday

    Time Temperature Precipitation Wind Pressure Humidity
    00:00 +29°C° 0 mm 2 mps 758 mmHg 80%
    01:00 +29°C° 0 mm 2 mps 758 mmHg 81%
    02:00 +29°C° 0 mm 2 mps 758 mmHg 82%
    03:00 +29°C° 0 mm 2 mps 758 mmHg 83%
    04:00 +28°C° 0 mm 1 mps 758 mmHg 84%
    05:00 +28°C° 0 mm 1 mps 758 mmHg 84%
    06:00 +28°C° 0 mm 1 mps 758 mmHg 85%
    07:00 +30°C° 0.4 mm 1 mps 759 mmHg 75%
    08:00 +32°C° 0.4 mm 1 mps 759 mmHg 64%
    09:00 +34°C° 0.4 mm 1 mps 759 mmHg 54%
    10:00 +35°C° 0 mm 1 mps 759 mmHg 50%
    11:00 +37°C° 0 mm 2 mps 758 mmHg 47%
    12:00 +38°C° 0 mm 3 mps 757 mmHg 43%
    13:00 +37°C° 0.4 mm 3 mps 757 mmHg 45%
    14:00 +37°C° 0.4 mm 3 mps 756 mmHg 46%
    15:00 +36°C° 0.4 mm 3 mps 756 mmHg 47%
    16:00 +36°C° 0.2 mm 3 mps 756 mmHg 49%
    17:00 +35°C° 0.2 mm 3 mps 756 mmHg 51%
    18:00 +34°C° 0.2 mm 3 mps 756 mmHg 53%
    19:00 +33°C° 0 mm 3 mps 757 mmHg 59%
    20:00 +31°C° 0 mm 3 mps 757 mmHg 64%
    21:00 +30°C° 0 mm 3 mps 758 mmHg 70%
    22:00 +30°C° 0 mm 3 mps 758 mmHg 72%
    23:00 +30°C° 0 mm 3 mps 758 mmHg 75%
    Show more